Regional Weather Roundup
Issued by NWS Sterling, VA

Home | Current Version | Previous Version | Graphics & Text | Print | Product List | Glossary On
Versions: 1 2 3 4 5 6 7 8 9 10 11 12 13 14 15 16 17 18 19 20 21 22 23 24 25 26 27 28 29 30 31 32 33 34 35 36 37 38 39 40 41 42 43 44 45 46 47 48 49
000
ASUS41 KLWX 030210
RWRLWX

REGIONAL WEATHER ROUNDUP
NATIONAL WEATHER SERVICE BALTIMORE MD/WASHINGTON DC
1000 PM EDT TUE JUN 02 2015

Note: "FAIR" indicates few or no clouds below 12,000 feet
with no significant weather and/or obstructions to visibility.
 TC=TEMPERATURE CELSIUS

 * =Non NWS site. Station does not report precipitation (e.g. rain,
    snow, etc.), thunder, or fog.

DCZ001-MDZ009-015-VAZ040>042-051-053>054-030300-
WASHINGTON METRO

CITY           SKY/WX    TMP DP  RH WIND       PRES   REMARKS
WASHINGTON NAT CLOUDY    61  56  83 N13       30.12R
DULLES         DRIZZLE   58  55  90 NE7       30.13R
ANDREWS AFB    CLOUDY    57  57 100 NE7       30.11R
FT BELVOIR     CLOUDY    59  56  88 VRB3      30.12R
QUANTICO       CLOUDY    59  55  87 NE13      30.12R
COLLEGE PARK*  CLOUDY    59  57  94 N5        30.12R
LEESBURG*      CLOUDY    59  59 100 NE8       30.14S FOG
MANASSAS*      CLOUDY    61  57  88 NE8       30.12R
GAITHERSBURG*  CLOUDY    57  54  88 CALM      30.17R

$$

MDZ006>007-011-014-030300-
BALTIMORE METRO

CITY           SKY/WX    TMP DP  RH WIND       PRES   REMARKS
BWI AIRPORT    CLOUDY    58  55  90 NE8       30.12S
MD SCIENCE CTR   N/A     59  55  87 MISG      30.14R
MARTIN STATE   DRIZZLE   59  57  94 N3        30.15R
ANNAPOLIS      LGT RAIN  59  58  96 NE9       30.11S
FORT MEADE*    CLOUDY    55  54  94 N6        30.15R

$$

MDZ012-015-019>023-030300-
MARYLAND EASTERN SHORE

CITY           SKY/WX    TMP DP  RH WIND       PRES   REMARKS
OCEAN CITY     CLOUDY    59  57  93 NE13      30.09R
SALISBURY      LGT RAIN  56  55  97 NE9       30.10R
BAY BRIDGE AP* RAIN     N/A N/A N/A N8        30.12S
CAMBRIDGE*     CLOUDY    59  55  88 NE7       30.10R
EASTON*        DRIZZLE   58  58 100 NE9       30.15R

$$

MDZ017>025-030300-
SOUTHERN MARYLAND

CITY           SKY/WX    TMP DP  RH WIND       PRES   REMARKS
PATUXENT RIVER DRIZZLE   59  57  93 NE10      30.10R
ST INIGOES     LGT RAIN  60  58  92 NE7       30.09R
LEONARDTOWN*   CLOUDY    59  55  88 E5        30.11R

$$

MDZ003>005-030300-
NORTH CENTRAL MARYLAND

CITY           SKY/WX    TMP DP  RH WIND       PRES   REMARKS
FREDERICK*     CLOUDY    57  57 100 NE6       30.16R FOG
HAGERSTOWN APT CLOUDY    60  54  80 NE7       30.14R
WESTMINSTER*   CLOUDY    55  54  94 NE5       30.14S

$$

MDZ501>502-030300-
WESTERN MARYLAND

CITY           SKY/WX    TMP DP  RH WIND       PRES   REMARKS
OAKLAND*       FOG       52 N/A N/A E8        30.15R VSB 1/2
CUMBERLAND*    CLOUDY    61  55  82 CALM      30.18R

$$

VAZ025>031-030300-
SHENANDOAH VALLEY

CITY           SKY/WX    TMP DP  RH WIND       PRES   REMARKS
WINCHESTER*    CLOUDY    59  59 100 NE5       30.13S
FRONT ROYAL*   CLOUDY    57  55  94 CALM      30.13R
LURAY*         CLOUDY    59  59 100 N8        30.13R
NEW MARKET*    CLOUDY    59  56  91 N5        30.12R
STAUNTON*      CLOUDY    61  58  91 NE6       30.13S FOG
WAYNESBORO*    CLOUDY    57  57 100 N5        30.11R

$$

WVZ021-048>050-054>055-030300-
EASTERN WEST VIRGINIA PANHANDLE

CITY           SKY/WX    TMP DP  RH WIND       PRES   REMARKS
MARTINSBURG    CLOUDY    59  56  89 NE5       30.15R FOG
PETERSBURG*    CLOUDY    61  56  83 NE3       30.14R

$$

VAZ036>039-050-030300-
CENTRAL FOOTHILLS

CITY           SKY/WX    TMP DP  RH WIND       PRES   REMARKS
CHARLOTTESVILL CLOUDY    61  56  83 NE13      30.10S
CULPEPER*      CLOUDY    58  57  94 N5        30.13R
ORANGE*        CLOUDY    61  57  88 N8        30.11S
GORDONSVILLE*  CLOUDY    59  55  88 N8        30.10S
WARRENTON*     CLOUDY    60  59  95 N6        30.12R

$$

VAZ055>057-030300-
NORTH AND CENTRAL PIEDMONT

CITY           SKY/WX    TMP DP  RH WIND       PRES   REMARKS
FREDERICKSBRG* CLOUDY    62  61  99 N5        30.10R
STAFFORD*      CLOUDY    59  56  88 N6        30.15R

$$

NCZ024-NYZ072-PAZ021-071-VAZ022-071-030300-
OTHER REGIONAL OBSERVATIONS

CITY           SKY/WX    TMP DP  RH WIND       PRES   REMARKS
NEW YORK CITY  LGT RAIN  53  51  93 VRB7      30.20R
PHILADELPHIA   LGT RAIN  56  53  90 E13G20    30.16R
PITTSBURGH     MOCLDY    59  53  80 E5        30.12R
ROANOKE        LGT RAIN  62  61  96 NE10      30.08S FOG
RICHMOND       CLOUDY    62  59  90 NE8       30.07R
RALEIGH        LGT RAIN  70  67  90 SE7       29.98F

$$

ANZ530>537-030300-
MARINE OBSERVATIONS

STATION/POSITION TIME  TEMP    WIND        PRES
                       AIR SEA DIR/SP/G
                 (UTC) (F)     (DEG/KT/KT) (MB)
THOMAS PT LIGHT  0200   59 72   40/ 15/ 16 1020.2R
BALT KEY BRIDGE  0100   58      20/ 10/ 12 1019.8R
COVE POINT       0100   59      50/ 13/ 19 1019.3R
LEWISETTA        0100   63 74              1018.1R
SOLOMONS ISLAND  0100      72                N/A
PINEY POINT      0100           60/  9/ 11   N/A

$$




USA.gov is the U.S. government's official web portal to all federal, state and local government web resources and services.